Regional Weather Roundup
Issued by NWS Albany, NY

Home | Current Version | Previous Version | Text Only | Print | Product List | Glossary On
Versions: 1 2 3 4 5 6 7 8 9 10 11 12 13 14 15 16 17 18 19 20 21 22 23 24 25 26 27 28 29 30 31 32 33 34 35 36 37 38 39 40 41 42 43 44 45 46 47 48 49 50
000
ASUS41 KALY 300610
RWRALY

NEW YORK STATE HOURLY WEATHER ROUNDUP
NATIONAL WEATHER SERVICE ALBANY NY
200 AM EDT SAT MAY 30 2015

NOTE: "FAIR" INDICATES FEW OR NO CLOUDS BELOW 12,000 FEET WITH NO
SIGNIFICANT WEATHER AND/OR NO OBSTRUCTIONS TO VISIBILITY.

NYZ032-033-038>043-046>054-057>066-NYZ062>081-300700-
EAST


CITY           SKY/WX    TMP DP  RH WIND       PRES   REMARKS
ALBANY         PTCLDY    69  57  65 S12       30.15F
GLENS FALLS    CLEAR     60  57  89 CALM      30.14F
POUGHKEEPSIE   CLEAR     63  58  83 CALM      30.18F
NEWBURGH       CLEAR     63  59  88 CALM      30.21F
MONTGOMERY     PTCLDY    61  58  90 CALM      30.19F
WHITE PLAINS   PTCLDY    61  58  90 SE5       30.21S
ISLIP          CLOUDY    62  60  93 CALM      30.21F
NEW YORK CITY  MOCLDY    67  60  78 S7        30.20F
CENTRAL PARK   PTCLDY    68  60  75 CALM      30.23F
$$

NYZ005>009-017-018-044>046-055-056-300700-
CENTRAL


CITY           SKY/WX    TMP DP  RH WIND       PRES   REMARKS
FULTON         MOCLDY    71  60  68 SE3       30.05F
SYRACUSE       PTCLDY    76  61  59 S9        30.06S
ROME           CLEAR     68  57  68 E7        30.11F
ELMIRA         MOCLDY    73  64  73 SW3       30.10F
BINGHAMTON     CLEAR     68  60  75 S6        30.15F
MONTICELLO     CLEAR     61  55  82 E3        30.23S
$$

NYZ026>034-041>043-300700-
NORTH


CITY           SKY/WX    TMP DP  RH WIND       PRES   REMARKS
WATERTOWN      MOCLDY    76  58  53 S10       30.01F
FORT DRUM      NOT AVBL
MASSENA        PTCLDY    65  55  70 CALM      30.02F
SARANAC LAKE   PTCLDY    49  48  97 CALM      30.11F
PLATTSBURGH    PTCLDY    56  53  90 CALM      30.08F
$$

NYZ001>004-010>016-019>021-300700-
WEST


CITY           SKY/WX    TMP DP  RH WIND       PRES   REMARKS
NIAGARA FALLS  PTCLDY    67  64  90 SW6       30.00F
BUFFALO        MOCLDY    75  61  61 S15       30.01F
DUNKIRK        PTCLDY    72  63  73 S17G26    30.03F
JAMESTOWN      PTCLDY    64  61  88 S9        30.11F
WELLSVILLE     MOCLDY    69  62  78 S14G22    30.15F
ROCHESTER      MOCLDY    75  62  64 SW13      30.03F
PENN YAN       MOCLDY    75  62  64 S10       30.08F
$$

             KEY
       WCI = WIND CHILL INDEX
       VSB = VISIBILITY
       HX  = HEAT INDEX
$$



USA.gov is the U.S. government's official web portal to all federal, state and local government web resources and services.